VINASAT-2

Last updated on Tue Oct 15 2024 00:02:39 GMT+0000 (Coordinated Universal Time)

1 38332U 12023B 24287.57579584 -.00000330 00000+0 00000+0 0 9995 2 38332 0.0354 26.8470 0002055 168.9132 166.0235 1.00271951 45482
UTC large
Height (km)
Speed (km/s)
/
Latitude / Longitude
Inclination (degrees)
Orbital Period (minutes)
Azimuth
Elevation
Range (km)
Doppler Factor

Next 0 passes for location: London (51.5072 / 0.1276)

Sorry there are no passes over London.